This is the latest recevied weather packets stored in our database for station/object WY7ATH-2. If no packets are shown the sender has not sent any weather packets the latest 10 day(s).
| Time | Temp. | Humidity | Pressure | Rain* | Wind** | Luminosity | Snow |
|---|---|---|---|---|---|---|---|
| 1787970678 | 19.44° C | - | - | 0 mm | 0.45 m/s, 256° | - | - |
| 1787968883 | 20° C | - | - | 0 mm | 3.13 m/s, 263° | - | - |
| 1787968286 | 20° C | - | - | 0.25 mm | 5.81 m/s, 274° | - | - |
| 1787967689 | 20° C | - | - | 0.25 mm | 8.49 m/s, 249° | - | - |
| 1787962908 | 22.78° C | - | - | 1.52 mm | 7.6 m/s, 291° | - | - |
| 1787961113 | 25.56° C | - | - | 3.3 mm | 8.05 m/s, 301° | - | - |
| 1787959322 | 26.67° C | - | - | 3.3 mm | 0 m/s | - | - |
| 1787958725 | 26.67° C | - | - | 3.3 mm | 1.34 m/s, 336° | - | - |
| 1787958125 | 27.78° C | - | - | 3.3 mm | 4.47 m/s, 252° | - | - |
| 1787957528 | 29.44° C | - | - | 5.33 mm | 3.58 m/s, 278° | - | - |
| 1787956931 | 28.89° C | - | - | 5.33 mm | 1.79 m/s, 357° | - | - |
| 1787955139 | 26.67° C | - | - | 5.33 mm | 7.6 m/s, 325° | - | - |
| 1787953345 | 30° C | - | - | 6.35 mm | 0.89 m/s, 325° | - | - |
| 1787952150 | 30.56° C | - | - | 6.35 mm | 4.47 m/s, 315° | - | - |
| 1787951553 | 29.44° C | - | - | 6.35 mm | 0 m/s | - | - |
| 1787949161 | 30° C | - | - | 11.43 mm | 5.81 m/s, 255° | - | - |
| 1787945575 | 31.11° C | - | - | 14.48 mm | 8.49 m/s, 285° | - | - |
| 1787943183 | 31.67° C | - | - | 15.75 mm | 6.71 m/s, 249° | - | - |
| 1787942586 | 32.78° C | - | - | 15.75 mm | 7.15 m/s, 229° | - | - |
| 1787940195 | 30.56° C | - | - | 15.75 mm | 7.15 m/s, 285° | - | - |
| 1787939012 | 31.67° C | - | - | 20.57 mm | 7.15 m/s, 270° | - | - |
| 1787938403 | 30.56° C | - | - | 20.57 mm | 4.92 m/s, 263° | - | - |
| 1787937806 | 31.11° C | - | - | 20.57 mm | 3.58 m/s, 238° | - | - |
| 1787936609 | 29.44° C | - | - | 20.57 mm | 4.92 m/s, 270° | - | - |
| 1787936011 | 30.56° C | - | - | 20.07 mm | 5.81 m/s, 271° | - | - |
* Rain latest hour (hover to see other rain measurements)
** Current wind speed in m/s (hover to see current wind gust speed)